Location: *
(24.1434°N, 56.8729°E)
Time: 19:35:54
(UTC+00:00)

Cosmos 2369 Rocket - Pass Details

Date: 09 April 2020
Orbit: 829 x 852 km, 71.0° (Epoch: 24 May)

Event Time Altitude Azimuth Distance (km) Brightness Sun altitude
Rises 15:25:19 0° 342° (NNW) 3,401 5.8 -12.7°
Reaches altitude 10° 15:27:47 10° 343° (NNW) 2,460 5.1 -13.3°
Maximum altitude 15:33:26 87° 72° (ENE) 843 2.1 -14.5°
Drops below altitude 10° 15:39:02 10° 162° (SSE) 2,435 4.3 -15.8°
Enters shadow 15:40:07 - 162° (SSE) 2,851 4.6 -16.0°
